Date,TemperatureHighF,TemperatureAvgF,TemperatureLowF,DewpointHighF,DewpointAvgF,DewpointLowF,HumidityHigh,HumidityAvg,HumidityLow,PressureMaxIn,PressureMinIn,WindSpeedMaxMPH,WindSpeedAvgMPH,GustSpeedMaxMPH,PrecipitationSumIn
2013-1-1,17,6,-9,10,1,-13,95,80,55,30.14,29.97,20,7,20,0.00
2013-1-2,20,14,12,16,12,10,99,94,82,29.97,29.91,17,8,17,0.00
2013-1-3,24,17,12,19,12,7,99,80,64,30.07,29.88,26,13,26,0.00
2013-1-4,41,20,10,24,14,8,94,80,47,30.09,29.87,21,7,21,0.00
2013-1-5,38,19,4,23,15,-15,99,83,10,30.09,29.81,58,4,58,0.00
2013-1-6,32,20,5,24,18,3,99,92,64,30.13,29.85,15,6,15,0.00
2013-1-7,37,26,12,25,19,8,90,77,62,30.04,29.77,30,15,30,0.00
2013-1-8,44,25,6,29,21,4,99,83,51,30.02,29.71,26,7,26,0.00
2013-1-9,36,31,29,29,26,22,86,82,57,30.17,29.75,34,16,34,0.00
2013-1-10,43,33,17,33,20,15,99,62,34,30.35,29.79,20,6,20,0.15
2013-1-11,40,36,33,40,36,33,99,99,99,29.79,29.43,23,8,23,0.02
2013-1-12,43,25,11,42,22,6,99,88,78,29.95,29.38,37,16,37,0.02
2013-1-13,15,9,4,7,4,0,86,80,66,30.08,29.91,17,8,17,0.00
2013-1-14,10,3,-4,3,-1,-8,87,83,74,30.27,30.08,20,7,20,0.00
2013-1-15,26,15,-2,16,7,-26,90,75,10,30.25,29.77,58,12,58,0.01
2013-1-16,27,21,8,25,17,1,99,84,67,30.08,29.54,31,15,31,0.00
2013-1-17,13,1,-11,2,-6,-37,82,73,10,30.27,30.08,58,8,58,0.00
2013-1-18,21,12,-11,20,9,-16,95,88,79,30.24,29.71,13,3,13,0.00
2013-1-19,33,19,1,31,17,-2,99,93,77,29.91,29.51,39,12,39,0.00
2013-1-20,8,-2,-10,-1,-8,-15,86,77,59,30.17,29.91,24,10,24,0.00
2013-1-21,-9,-14,-21,-14,-21,-27,81,71,58,30.10,30.02,24,10,24,0.00
2013-1-22,4,-11,-21,-9,-19,-51,76,67,10,30.20,30.09,58,8,58,0.00
2013-1-23,9,-8,-24,1,-14,-30,84,76,68,30.17,29.98,23,7,23,0.00
2013-1-24,5,-1,-22,2,-7,-28,87,77,68,30.54,30.16,15,4,15,0.00
2013-1-25,21,10,5,12,6,2,90,84,68,30.16,29.85,15,6,15,0.00
2013-1-26,26,14,6,14,8,3,87,80,59,30.30,30.13,15,5,15,0.00
2013-1-27,32,26,16,27,22,11,99,85,65,30.17,29.83,15,5,15,0.00
2013-1-28,40,28,23,32,27,23,99,95,71,29.88,29.72,12,1,12,0.07
2013-1-29,34,31,26,34,31,25,99,99,98,29.72,29.50,17,1,17,0.05
2013-1-30,26,21,13,25,19,12,99,95,91,29.65,29.46,0,0,0,0.00
2013-1-31,12,5,-1,7,-1,-38,91,78,14,29.99,24.65,46,0,46,0.12
2013-2-1,5,-7,-18,-5,-14,-53,82,71,14,30.11,26.92,0,0,2,0.00
2013-2-2,24,0,-20,7,-7,-25,84,71,44,30.06,29.89,0,0,0,0.00
2013-2-3,14,2,-15,2,-6,-20,84,69,53,29.94,29.84,0,0,0,0.00
2013-2-4,22,-6,-29,2,-15,-35,84,65,34,29.95,29.76,10,1,10,0.00
2013-2-5,23,8,-12,16,4,-16,93,84,68,30.02,29.61,18,6,18,0.00
2013-2-6,20,6,-13,18,2,-17,98,85,73,30.10,30.01,13,2,13,0.00
2013-2-7,23,19,14,21,18,12,99,95,91,30.23,30.06,14,2,14,0.00
2013-2-8,38,14,0,19,8,-3,94,79,42,30.34,30.23,8,1,8,0.02
2013-2-9,30,16,1,20,13,-2,99,89,66,30.26,30.00,21,7,21,0.00
2013-2-10,32,26,19,31,26,19,99,99,99,30.02,29.30,13,3,13,0.00
2013-2-11,31,25,18,30,24,17,99,97,92,29.89,29.27,18,6,18,0.00
2013-2-12,23,18,14,22,16,12,99,92,86,29.92,29.71,16,7,16,0.00
2013-2-13,42,29,17,32,25,17,98,86,66,29.71,29.60,12,5,12,0.09
2013-2-14,32,21,12,27,18,8,99,88,79,30.01,29.63,16,3,16,0.00
2013-2-15,18,8,-6,10,2,-10,92,78,56,30.14,30.01,18,6,18,0.00
2013-2-16,22,-3,-20,8,-10,-26,91,73,49,30.11,30.07,14,2,14,0.00
2013-2-17,26,4,-26,9,-6,-32,85,65,45,30.10,29.78,21,8,21,0.01
2013-2-18,32,24,17,26,20,10,99,84,73,29.78,29.48,21,8,21,0.00
2013-2-19,20,7,2,19,4,-2,97,86,70,30.13,29.53,25,14,25,0.00
2013-2-20,11828,11,-13,100,8,-18,91,88,10,30.34,30.13,58,3,58,0.00
2013-2-21,39,22,10,22,15,8,96,76,45,30.42,30.13,12,4,12,0.05
2013-2-22,29,21,17,24,19,16,96,91,82,30.13,29.77,12,2,12,0.00
2013-2-23,39,24,14,30,21,12,99,91,70,29.86,29.74,5,0,5,0.00
2013-2-24,33,25,9,27,21,7,99,85,67,30.07,29.86,1,0,1,0.00
2013-2-25,33,23,6,27,20,4,96,88,72,30.10,30.03,14,3,14,0.00
2013-2-26,51,29,10,31,23,9,99,80,42,30.08,29.89,13,3,13,0.07
2013-2-27,32,29,27,27,25,23,93,87,78,29.89,29.83,13,5,13,0.00
2013-2-28,30,24,23,27,21,20,89,89,88,30.08,29.85,10,5,10,0.00
2013-3-1,36,28,16,20,12,9,88,54,32,30.30,30.04,12,4,12,0.01
2013-3-2,29,-3,-7,11,-7,-11,88,83,47,30.27,30.25,2,0,2,0.01
2013-3-15,34,24,6,19,14,3,88,66,55,30.26,29.96,4,0,1,0.01
2013-3-16,23,18,8,13,8,0,80,65,57,30.13,29.97,20,11,20,0.00
2013-3-17,34,16,-11,8,1,-16,85,54,26,30.21,29.95,17,7,17,0.00
2013-3-18,28,21,15,26,18,8,98,85,66,29.95,29.49,23,10,23,0.00
2013-3-19,28,17,10,14,9,4,91,71,44,29.92,29.49,34,18,34,0.00
2013-3-20,21,12,4,8,4,0,82,72,55,30.01,29.90,23,12,23,0.00
2013-3-21,38,18,-2,18,9,-8,88,70,38,30.00,29.96,13,4,13,0.00
2013-3-22,32,4,-12,23,-2,-17,81,76,65,30.03,29.99,7,1,7,0.00
2013-3-24,36,27,12,24,19,9,88,73,59,30.05,29.95,10,3,10,0.00
2013-3-25,38,24,8,28,18,5,98,80,57,30.15,29.96,16,2,16,0.00
2013-3-26,41,29,19,30,22,16,98,77,52,30.24,30.14,10,2,10,0.01
2013-3-27,50,32,13,25,19,8,86,61,29,30.29,30.23,20,3,20,0.00
2013-3-28,55,28,3,24,13,0,93,61,24,30.31,30.25,15,2,15,0.00
2013-3-29,56,30,7,28,17,4,94,63,22,30.29,30.12,20,3,20,0.00
2013-3-30,41,36,31,40,33,22,99,91,61,30.11,29.75,15,6,15,0.38
2013-3-31,39,30,20,35,24,10,99,78,52,29.93,29.65,28,8,28,0.00
2013-4-1,35,24,13,14,9,5,81,56,33,30.10,29.93,23,12,23,0.00
2013-4-2,43,25,10,19,11,4,82,58,28,30.29,30.09,17,6,17,0.00
2013-4-3,45,24,-1,20,7,-5,88,54,21,30.38,30.04,26,9,26,0.00
2013-4-4,50,38,24,33,24,16,77,57,34,30.11,29.94,30,11,30,0.00
2013-4-5,51,29,12,24,16,8,91,64,19,30.25,30.07,14,2,14,0.00
2013-4-6,40,33,29,35,31,22,99,94,64,30.08,29.57,18,5,18,0.30
2013-4-7,48,35,29,36,30,26,99,85,53,29.93,29.62,9,2,9,0.13
2013-4-8,43,35,29,40,34,28,99,97,87,30.03,29.79,7,1,7,0.25
2013-4-9,35,34,32,34,34,32,99,99,99,30.11,30.01,7,3,7,0.00
2013-4-10,45,35,30,34,28,13,99,80,34,30.13,30.06,13,5,13,0.00
2013-4-11,36,30,25,27,21,15,95,71,51,30.06,29.76,17,6,17,0.02
2013-4-12,41,28,24,30,25,22,97,90,64,29.77,29.67,7,1,7,0.17
2013-4-13,41,27,9,29,21,5,98,81,55,29.96,29.73,15,2,15,0.07
2013-4-14,47,26,2,34,20,-2,99,80,44,30.00,29.67,13,2,13,0.15
2013-4-15,42,35,32,38,30,26,99,82,57,29.87,29.58,34,12,34,0.28
2013-4-16,51,36,24,34,28,20,96,72,42,30.36,29.86,22,7,22,0.00
2013-4-17,47,33,21,31,26,20,99,77,48,30.38,30.01,13,2,13,0.00
2013-4-18,36,32,29,35,32,29,99,98,90,30.01,29.32,8,1,8,0.05
2013-4-19,32,27,24,29,25,20,99,93,73,29.53,29.25,0,0,0,0.00
2013-4-20,46,28,-2,24,16,-5,94,64,32,30.34,30.03,9,1,9,0.38
2013-4-21,37,27,9,33,23,6,99,85,73,30.36,30.10,32,9,32,0.02
2013-4-22,57,38,29,39,32,24,99,81,38,30.21,30.07,12,4,12,0.14
2013-4-23,43,31,14,32,26,11,99,84,54,30.07,29.95,20,2,20,0.24
2013-4-24,48,29,4,32,20,1,97,71,42,29.99,29.86,26,7,26,0.01
2013-4-25,51,38,29,33,26,18,97,66,30,30.18,29.89,21,9,21,0.01
2013-4-26,62,42,29,38,32,23,99,71,42,30.17,30.05,21,8,21,0.11
2013-4-27,70,56,35,42,34,-16,85,47,10,30.11,29.96,58,10,58,0.00
2013-4-28,66,50,33,50,38,-18,99,70,10,29.97,29.76,58,10,58,0.30
2013-4-29,73,54,35,63,45,34,99,76,36,29.83,29.70,14,3,14,0.07
2013-4-30,74,57,40,59,46,34,99,71,36,29.93,29.52,31,8,31,0.00
2013-5-1,46,37,32,40,35,31,99,91,68,30.44,29.93,14,2,14,0.11
2013-5-2,32,29,27,31,29,26,99,99,95,30.48,30.38,0,0,0,0.00
2013-5-3,32,29,27,30,28,26,99,97,92,30.39,30.20,0,0,0,0.00
2013-5-4,60,41,31,46,36,31,99,85,54,30.21,30.14,8,2,8,0.40
2013-5-5,62,42,32,44,36,30,99,82,51,30.20,30.12,10,2,10,0.00
2013-5-6,75,50,29,50,38,28,99,70,31,30.14,30.06,9,1,9,0.00
2013-5-7,78,58,31,42,36,30,97,52,20,30.12,30.01,11,2,11,0.00
2013-5-8,79,56,34,52,40,33,99,61,21,30.08,30.00,24,2,24,0.00
2013-5-9,49,42,34,44,39,34,99,91,76,30.17,30.02,8,2,8,0.27
2013-5-10,61,41,29,36,30,24,98,70,32,30.16,30.01,13,4,13,0.01
2013-5-11,41,36,30,34,30,25,99,79,55,30.05,29.91,30,12,30,0.05
2013-5-12,51,37,27,30,24,18,99,65,30,30.13,30.05,21,3,21,0.05
2013-5-13,56,42,22,33,24,17,99,54,24,30.14,29.77,20,6,20,0.00
2013-5-14,82,60,37,48,41,32,87,52,25,29.83,29.49,29,7,29,0.00
2013-5-15,75,64,50,46,40,31,80,45,22,29.87,29.59,26,12,26,0.00
2013-5-16,76,60,42,51,37,21,99,51,14,30.09,29.86,22,3,22,0.00
2013-5-17,77,57,47,46,39,33,77,53,29,30.15,30.06,17,4,17,0.00
2013-5-18,71,60,50,63,57,49,99,90,68,30.10,29.93,13,4,13,1.45
2013-5-19,85,70,59,64,61,55,99,78,44,29.95,29.77,27,6,27,0.32
2013-5-20,76,64,56,64,59,54,99,87,51,29.81,29.59,23,6,23,0.00
2013-5-21,72,55,45,60,52,45,99,89,63,29.78,29.60,14,4,14,0.00
2013-5-22,54,47,41,52,47,40,99,98,86,30.05,29.76,17,3,17,0.17
2013-5-23,57,44,34,41,34,28,98,71,38,30.36,30.05,15,4,15,0.00
2013-5-24,57,34,31,54,34,31,99,97,61,30.43,30.36,6,1,4,0.00
2013-5-25,69,62,45,45,40,35,83,47,30,30.36,30.28,20,6,20,0.00
2013-5-26,73,56,38,48,36,26,99,54,18,30.36,30.18,23,5,23,0.00
2013-5-27,76,58,42,43,39,36,90,53,24,30.21,29.95,21,6,21,0.00
2013-5-28,64,57,52,55,49,42,98,74,57,29.96,29.77,13,4,13,0.00
2013-5-29,81,64,55,64,57,53,99,81,43,29.89,29.77,20,7,20,0.00
2013-5-30,80,68,60,70,65,60,99,92,61,29.85,29.68,23,7,23,0.00
2013-5-31,79,68,62,67,60,54,99,78,46,29.70,29.63,29,12,29,0.05
2013-6-1,46,40,40,45,40,39,99,99,96,29.89,29.81,9,5,9,0.00
2013-6-2,64,48,39,42,40,36,99,77,37,30.05,29.89,16,5,16,0.04
2013-6-3,68,52,35,53,37,26,99,63,24,30.15,30.04,15,3,15,0.00
2013-6-4,64,53,40,51,44,37,97,74,45,30.20,30.13,14,3,14,0.05
2013-6-5,56,50,48,54,50,47,99,99,93,30.19,30.06,10,3,10,0.05
2013-6-6,56,51,48,54,50,48,99,97,87,30.07,30.03,8,2,8,0.00
2013-6-7,70,56,41,60,46,40,99,74,43,30.08,29.99,15,3,15,0.00
2013-6-9,65,60,51,58,55,50,99,82,69,30.05,29.92,10,3,10,0.00
2013-6-10,82,67,58,65,60,56,99,78,50,29.92,29.84,13,3,13,0.00
2013-6-11,83,67,54,66,57,50,99,74,38,29.95,29.87,15,3,15,0.00
2013-6-12,85,70,49,65,51,48,99,57,29,29.96,29.84,13,2,13,0.00
2013-6-13,75,62,51,54,50,46,99,68,42,30.17,29.91,18,3,18,0.00
2013-6-14,78,63,45,62,47,39,99,64,28,30.20,30.02,15,4,15,0.00
2013-6-15,69,64,60,67,63,60,99,97,89,29.97,29.85,10,4,10,0.00
2013-6-16,79,65,54,61,55,46,99,77,33,29.98,29.85,29,8,29,0.04
2013-6-17,74,60,46,62,55,45,99,84,60,30.11,29.90,10,2,10,0.00
2013-6-18,77,59,40,57,43,36,99,62,25,30.18,30.10,17,3,17,0.00
2013-6-19,77,62,44,58,51,44,99,70,44,30.16,30.04,17,5,17,0.00
2013-6-20,76,65,57,69,62,57,99,91,70,30.14,30.07,18,3,18,0.00
2013-6-21,74,65,62,71,64,61,99,96,79,30.09,29.85,13,4,13,0.00
2013-6-28,72,66,61,68,64,59,99,91,74,29.80,29.71,13,5,13,0.00
2013-6-29,56,40,56,100,62,47,73,55,10,30.00,30.00,58,25,58,0.00
2013-7-1,84,73,52,62,53,46,99,53,32,30.23,30.00,58,3,9,0.00
2013-7-2,83,65,46,62,48,37,99,62,23,30.23,30.12,13,2,13,0.00
2013-7-3,85,66,48,62,51,42,99,65,25,30.14,30.02,15,3,15,0.00
2013-7-4,83,71,58,63,60,52,99,72,38,30.05,29.97,21,6,21,0.00
2013-7-5,85,75,65,63,59,52,81,59,34,30.01,29.92,28,11,28,0.00
2013-7-6,87,76,69,72,68,63,99,82,48,29.96,29.93,17,4,17,0.00
2013-7-7,87,76,68,74,71,68,99,86,60,29.99,29.92,23,3,23,0.00
2013-7-8,85,71,61,72,66,60,99,87,59,30.05,29.93,12,3,12,0.00
2013-7-9,77,69,60,76,68,60,99,98,89,30.05,29.79,21,4,21,0.00
2013-7-10,67,63,60,66,62,60,99,99,99,29.90,29.86,17,12,17,0.00
2013-7-11,84,75,59,70,56,47,99,56,32,30.16,29.90,15,5,15,0.00
2013-7-12,83,71,57,63,60,56,99,70,42,30.13,30.03,26,10,26,0.00
2013-7-14,86,76,66,68,64,59,99,69,44,30.26,30.14,22,8,22,0.00
2013-7-15,87,75,61,77,65,60,99,76,46,30.31,30.25,18,4,18,0.00
2013-7-16,89,79,68,75,71,68,99,78,54,30.27,30.20,25,8,25,0.00
2013-7-17,89,80,70,74,70,67,99,74,52,30.28,30.16,21,7,21,0.00
2013-7-18,90,80,69,74,71,68,99,74,52,30.17,29.76,35,12,35,0.00
2013-7-19,81,76,66,77,67,55,99,75,46,29.85,29.69,24,10,24,0.00
2013-7-20,54,51,49,46,45,45,89,80,70,30.07,30.05,1,0,0,0.00
2013-7-21,76,62,47,61,54,46,99,80,55,30.07,29.92,13,3,13,0.00
2013-7-22,80,67,58,73,63,55,99,87,65,29.93,29.68,24,9,24,0.00
2013-7-23,73,61,51,55,51,46,99,70,41,30.06,29.80,18,5,18,0.00
2013-7-24,74,60,45,59,52,45,99,77,49,30.11,30.02,17,4,17,0.00
2013-7-25,79,64,53,68,59,53,99,85,51,30.03,29.90,21,6,21,0.00
2013-7-26,69,57,46,63,55,46,99,93,75,30.04,29.89,17,4,17,0.00
2013-7-27,59,52,47,52,49,47,99,90,71,29.92,29.86,20,7,20,0.00
2013-7-28,58,52,47,57,52,47,99,99,98,30.06,29.88,18,6,18,0.00
2013-7-29,80,61,42,58,51,41,99,74,41,30.16,30.05,10,2,10,0.00
2013-7-30,69,63,56,63,59,55,99,90,71,30.18,30.08,16,5,16,0.00
2013-7-31,77,65,56,65,60,53,99,84,55,30.08,29.96,21,7,21,0.00
2013-8-1,80,64,55,59,54,52,99,73,40,29.99,29.88,17,6,17,0.00
2013-8-2,76,63,53,61,55,50,99,78,44,30.04,29.86,18,5,18,0.00
2013-8-5,68,62,55,66,62,54,99,98,89,30.00,29.85,13,4,13,0.00
2013-8-6,77,68,62,66,62,56,99,83,54,29.86,29.77,16,6,16,0.00
2013-8-7,76,64,50,63,53,44,99,73,36,30.05,29.85,15,5,15,0.00
2013-8-8,72,58,45,63,54,45,99,88,55,30.07,30.00,15,3,15,0.00
2013-8-9,69,62,54,59,54,49,99,77,52,30.10,29.98,21,8,21,0.00
2013-8-11,81,69,54,61,57,51,99,67,39,30.11,30.04,10,3,10,0.00
2013-8-12,76,61,46,62,54,46,99,79,52,30.11,30.00,18,4,18,0.00
2013-8-13,72,56,44,58,47,43,99,78,39,30.22,30.11,13,3,13,0.00
2013-8-14,75,55,42,52,47,42,99,80,34,30.22,30.13,10,2,10,0.00
2013-8-15,83,61,45,60,52,45,99,76,36,30.15,30.10,17,4,17,0.00
2013-8-16,83,64,46,72,53,45,99,74,33,30.20,30.14,13,2,13,0.00
2013-8-17,79,65,50,64,55,49,99,75,43,30.25,30.15,21,6,21,0.00
2013-8-18,80,66,52,61,56,52,99,74,41,30.20,30.06,24,6,24,0.00
2013-8-19,81,70,62,67,62,57,93,78,59,30.07,29.96,23,9,23,0.00
2013-8-20,84,74,63,70,68,63,99,82,60,30.01,29.92,23,8,23,0.00
2013-8-21,86,74,61,75,70,61,99,87,61,30.07,29.89,18,7,18,0.00
2013-8-22,84,68,50,61,54,46,99,69,28,30.20,30.06,12,3,12,0.00
2013-8-23,83,63,45,62,54,45,99,75,38,30.23,30.12,20,4,20,0.00
2013-8-24,81,70,58,70,62,57,99,78,53,30.21,30.02,26,9,26,0.00
2013-8-25,92,81,73,74,72,69,94,76,51,30.05,29.98,30,14,30,0.00
2013-8-26,94,75,67,77,72,67,99,91,55,30.10,29.95,30,4,30,0.00
2013-8-27,90,74,66,79,71,66,99,91,61,30.00,29.87,20,2,20,0.01
2013-8-28,92,72,61,76,66,61,99,85,40,30.10,29.98,8,1,8,0.00
2013-8-29,80,72,66,75,69,65,99,93,73,30.11,29.90,30,4,30,0.00
2013-8-30,83,70,58,69,64,58,99,83,53,30.00,29.91,15,3,15,0.00
2013-8-31,85,68,55,70,62,55,99,82,48,29.98,29.76,13,4,13,0.00
2013-9-1,69,66,64,67,64,61,99,95,78,29.82,29.73,20,8,20,0.00
2013-9-2,59,54,45,56,52,45,99,94,79,30.08,30.01,13,5,13,0.00
2013-9-3,76,59,43,57,51,43,99,78,45,30.08,29.98,17,6,17,0.00
2013-9-4,76,64,49,60,56,48,99,77,45,30.21,30.00,13,5,13,0.00
2013-9-5,48,46,43,48,45,43,99,99,99,30.30,30.22,2,1,2,0.00
2013-9-6,80,72,48,71,67,47,99,84,64,30.30,29.94,21,7,21,0.00
2013-9-7,85,69,54,77,64,54,99,87,60,30.15,29.92,11,3,11,0.00
2013-9-8,74,56,47,61,52,47,99,88,47,30.18,30.11,10,2,10,0.00
2013-9-9,78,69,62,76,68,62,99,97,87,29.90,29.70,13,3,13,0.00
2013-9-10,77,70,66,71,68,65,99,92,71,29.96,29.86,15,8,15,0.00
2013-9-11,78,66,56,66,60,52,99,84,46,30.06,29.95,23,7,23,0.00
2013-9-12,64,55,47,57,50,45,99,84,61,30.22,30.03,20,4,20,0.00
2013-9-13,70,51,39,52,45,39,99,82,43,30.27,30.11,13,2,13,0.00
2013-9-14,68,54,41,57,48,41,99,82,53,30.12,29.96,21,6,21,0.00
2013-9-15,57,54,53,55,54,48,99,97,80,30.18,29.98,12,3,12,0.00
2013-9-17,68,59,57,53,50,46,84,72,44,30.09,30.04,20,9,20,0.00
2013-9-18,65,59,56,65,58,-10,99,98,10,30.04,26.92,15,5,15,0.00
2013-9-19,79,68,62,74,66,62,99,97,77,29.85,29.69,24,5,24,0.00
2013-9-20,66,59,50,66,57,48,99,91,71,29.85,29.71,21,10,21,0.00
2013-9-21,62,48,35,50,43,35,99,85,49,30.00,29.84,18,7,18,0.00
2013-9-22,64,42,32,46,37,31,99,87,46,30.09,30.00,15,3,15,0.00
2013-9-23,72,60,48,52,50,47,99,71,45,30.09,30.01,21,7,21,0.00
2013-9-24,78,56,43,56,49,43,99,81,36,30.08,29.98,13,3,13,0.00
2013-9-25,81,56,42,58,48,42,99,82,33,30.05,29.97,12,2,12,0.00
2013-9-26,78,57,43,54,49,43,99,79,36,30.07,30.02,20,4,20,0.00
2013-9-27,79,65,53,58,53,49,96,68,45,30.08,29.96,27,8,27,0.00
2013-9-28,74,59,51,63,55,50,99,88,56,29.98,29.68,33,14,33,0.00
2013-9-29,71,53,42,50,46,39,99,81,33,29.99,29.90,18,8,18,0.00
2013-10-2,82,64,39,53,36,16,99,49,10,30.08,29.92,13,3,13,0.00
2013-10-3,60,54,50,55,52,50,99,94,76,30.02,29.93,9,2,9,0.00
2013-10-4,61,54,50,55,52,50,99,94,76,30.10,30.00,13,3,13,0.00
2013-10-5,56,53,50,56,52,50,99,99,99,30.08,29.73,12,4,12,0.00
2013-10-6,63,54,49,55,52,49,99,93,68,29.74,29.67,14,5,14,0.00
2013-10-10,76,61,40,46,43,39,99,55,29,30.05,29.80,13,3,13,0.00
2013-10-11,77,59,45,55,50,45,99,76,41,30.05,29.82,34,7,34,0.00
2013-10-12,61,56,46,54,46,39,99,71,49,30.05,29.77,29,14,29,0.00
2013-10-13,64,51,44,46,39,22,97,69,22,30.36,30.04,21,9,21,0.00
2013-10-14,58,48,30,42,36,30,99,66,41,30.41,30.15,15,3,15,0.00
2013-10-15,52,48,45,52,47,40,99,95,74,30.15,29.71,13,3,13,0.00
2013-10-16,46,41,32,46,40,32,99,96,74,29.89,29.73,12,4,12,0.00
2013-10-17,54,40,31,47,37,31,99,90,56,29.88,29.75,12,3,12,0.00
2013-10-18,54,40,31,43,38,30,99,93,45,29.88,29.76,15,3,15,0.00
2013-10-19,45,37,32,39,35,32,99,96,74,29.82,29.63,23,5,23,0.00
2013-10-20,42,35,32,40,34,32,99,97,76,29.77,29.69,10,4,10,0.00
2013-10-21,34,32,30,33,30,27,99,92,81,29.79,29.72,28,15,28,0.00
2013-10-22,35,33,31,35,32,30,99,97,89,29.95,29.75,18,7,18,0.00
2013-10-23,39,32,28,32,28,24,99,87,65,29.96,29.88,18,8,18,0.00
2013-10-24,38,33,30,34,30,28,99,91,76,30.19,29.95,18,9,18,0.00
2013-10-25,46,36,27,37,30,27,99,82,62,30.21,29.64,33,11,33,0.00
2013-10-26,46,38,33,38,33,29,99,82,61,30.00,29.65,21,9,21,0.00
2013-10-27,52,38,32,34,30,29,95,76,47,29.96,29.76,23,9,23,0.00
2013-10-28,47,33,23,22,19,14,92,60,29,30.44,30.37,11,2,11,0.00
2013-10-29,36,29,21,33,27,20,99,93,69,30.43,30.13,14,2,14,0.00
2013-10-30,48,41,33,48,40,33,99,99,99,30.13,29.71,13,4,13,0.00
2013-10-31,52,47,42,52,47,42,99,99,99,29.71,29.28,10,2,10,0.00
2013-11-1,42,39,35,42,39,35,99,99,99,29.75,29.28,18,7,18,0.00
2013-11-2,43,36,31,40,34,31,99,94,67,30.10,29.75,13,3,13,0.00
2013-11-3,48,35,28,38,32,28,99,90,58,30.19,30.08,21,4,21,0.00
2013-11-4,43,42,38,43,40,35,99,94,74,30.09,29.86,30,12,30,0.00
2013-11-5,44,36,31,35,32,28,99,86,57,30.20,29.96,21,5,21,0.00
2013-11-6,34,31,28,33,29,23,99,93,82,30.05,29.88,20,0,20,0.00
2013-11-7,33,29,24,29,25,20,93,85,76,30.12,30.05,15,8,15,0.00
2013-11-8,36,29,17,33,26,17,99,90,75,30.14,29.66,21,6,21,0.00
2013-11-9,36,34,33,36,33,31,99,96,88,29.96,29.57,26,13,26,0.00
2013-11-10,41,34,32,33,29,25,99,82,55,30.22,29.95,27,12,27,0.00
2013-11-11,32,22,18,32,18,14,99,83,65,30.52,30.00,21,9,21,0.00
2013-11-12,31,20,13,14,9,4,86,65,35,30.58,30.33,18,10,18,0.00
2013-11-13,46,32,17,30,21,8,78,64,46,30.33,29.78,34,16,34,0.00
2013-11-14,45,36,31,32,30,27,89,76,59,29.81,29.73,14,7,14,0.00
2013-11-15,51,37,28,37,33,27,99,86,56,29.82,29.74,20,5,20,0.00
2013-11-16,49,41,35,48,39,33,99,92,81,29.74,29.30,25,6,25,0.00
2013-11-17,50,42,37,49,42,36,99,99,98,29.38,29.24,29,10,29,0.00
2013-11-18,27,26,24,20,19,18,78,74,70,30.18,29.80,30,15,30,0.00
2013-11-19,40,29,16,21,18,14,96,67,43,30.25,30.00,27,8,27,0.00
2013-11-20,40,35,31,31,24,19,99,68,45,30.03,29.97,27,11,27,0.00
2013-11-21,34,30,24,33,30,24,99,99,99,30.35,30.03,17,5,17,0.00
2013-11-22,32,23,13,24,16,5,99,77,38,30.42,30.27,21,10,21,0.00
2013-11-23,16,10,7,10,-5,-38,90,63,10,30.59,30.38,58,19,58,0.00
2013-11-24,7,7,7,100,-38,-38,10,10,10,30.53,29.97,58,58,58,0.00
2013-11-25,7,7,7,100,-35,-38,10,10,10,29.87,29.76,58,58,58,0.00
2013-12-10,7,4,7,100,31,-38,10,10,10,30.00,29.87,58,58,58,0.00
2013-12-20,7,2,7,100,65,-38,10,10,10,29.88,29.87,58,58,58,0.00
2013-12-31,7,1,7,100,79,-38,10,10,10,30.03,29.87,58,58,58,0.00